Home   Weather   Columbus Plaza   Past weeks
Flag for USA

Past Weather in Columbus Plaza, District of Columbia, USA — Yesterday and Last 2 Weeks

Now
68 °F

Passing clouds.


Feels Like: 68 °F
Forecast: 74 / 53 °F
Wind: 5 mph from South

Location: Reagan National Airport
Current Time: Oct 20, 2020 at 7:51:35 pm
Latest Report: Oct 20, 2020 at 6:52 pm
Visibility: 10 mi
Pressure30.21 "Hg
Humidity: 76%
Dew Point: 60 °F
Location of Columbus PlazaLocation

Past Weather in Columbus Plaza — Graph

°F

Columbus Plaza Temperature Yesterday

Maximum temperature yesterday: 72 °F (at 3:52 pm)
Minimum temperature yesterday: 57 °F (at 6:52 am)
Average temperature yesterday: 64 °F

High & Low Weather Summary for the Past Weeks

 TemperatureHumidityPressure
High80 °F (Oct 7, 2:52 pm)97% (Oct 12, 4:56 am)30.45 "Hg (Oct 12, 4:56 am)
Low46 °F (Oct 17, 4:52 am)29% (Oct 17, 4:52 pm)29.71 "Hg (Oct 7, 4:52 pm)
Average62 °F75%30.10 "Hg
* Reported Oct 5 5:52 pm — Oct 20 5:52 pm, Columbus Plaza. Weather by CustomWeather, © 2020

Note: Actual official high and low records may vary slightly from our data, if they occured in-between our weather recording intervals... More about our weather records

Columbus Plaza Weather History for the Previous 24 Hours

Scroll right to see more
 ConditionsComfort  
Time TempWeatherWind HumidityBarometerVisibility
5:52 pm
Tue, Oct 20
72 °FPartly sunny.6 mph64%30.20 "Hg10 mi
4:52 pm75 °FScattered clouds.6 mph58%30.19 "Hg10 mi
3:52 pm75 °FPartly sunny.8 mph60%30.19 "Hg10 mi
2:52 pm74 °FPartly sunny.7 mph64%30.20 "Hg10 mi
1:52 pm71 °FPartly sunny.8 mph71%30.22 "Hg10 mi
12:52 pm68 °FPartly sunny.7 mph78%30.23 "Hg10 mi
11:52 am66 °FBroken clouds.7 mph81%30.25 "Hg10 mi
11:30 am64 °FBroken clouds.7 mph87%30.26 "Hg10 mi
10:52 am64 °FPartly sunny.7 mph87%30.26 "Hg10 mi
10:25 am62 °FPartly sunny.6 mph90%30.25 "Hg10 mi
9:52 am61 °FFog.5 mph97%30.24 "Hg6 mi
9:31 am60 °FFog.9 mph96%30.24 "Hg3 mi
9:07 am60 °FFog.9 mph96%30.24 "Hg1 mi
8:52 am60 °FDrizzle. Fog.8 mph96%30.24 "Hg1 mi
8:27 am60 °FFog.8 mph96%30.24 "Hg1 mi
7:52 am60 °FFog.5 mph96%30.23 "Hg1 mi
7:19 am60 °FFog.5 mph96%30.22 "Hg1 mi
6:52 am60 °FFog.5 mph96%30.22 "Hg1 mi
6:35 am60 °FDrizzle. Fog.8 mph96%30.22 "Hg1 mi
6:23 am60 °FDrizzle. Fog.7 mph96%30.22 "Hg1 mi
6:04 am60 °FDrizzle. Fog.3 mph93%30.22 "Hg2 mi
5:54 am60 °FDrizzle. Fog.3 mph93%30.22 "Hg2 mi
5:24 am61 °FDrizzle. Fog.6 mph93%30.21 "Hg5 mi
4:52 am60 °FLow clouds.6 mph93%30.21 "Hg10 mi
4:15 am59 °FOvercast.No wind90%30.22 "Hg10 mi
3:52 am60 °FMostly cloudy.No wind86%30.22 "Hg10 mi
2:52 am59 °FPartly cloudy.No wind90%30.22 "Hg10 mi
2:36 am59 °FPartly cloudy.3 mph90%30.23 "Hg10 mi
1:52 am59 °FPassing clouds.5 mph90%30.23 "Hg10 mi
12:52 am61 °FPassing clouds.6 mph83%30.23 "Hg10 mi
11:52 pm
Mon, Oct 19
62 °FPassing clouds.3 mph83%30.25 "Hg10 mi
10:52 pm63 °FPassing clouds.3 mph78%30.25 "Hg10 mi
9:52 pm63 °FPassing clouds.9 mph78%30.22 "Hg10 mi
8:52 pm64 °FPassing clouds.10 mph78%30.22 "Hg10 mi
7:52 pm65 °FPassing clouds.6 mph76%30.25 "Hg10 mi
Weather by CustomWeather, © 2020

See weather overview